Lid_Strength_Index
3 1 1 1 1 0 0 0 0 0 -0 0 0 0 1 -0 -0 -1 -1 -1 -2 -1 -2 -1 -1 -1 -0 -0 -1 -0 -0 0 -1 1 1 0 -0 -0 -1 -1 -1 -1 -1
3 2 1 1 1 1 0 0 -0 -0 -0 -0 0 0 -0 -0 -1 -1 -1 -2 -1 -1 -1 -1 -1 -1 -0 -1 -0 -0 1 -0 -0 2 2 5 3 1 -0 -1 -0 -1 -1
4 3 2 2 1 1 1 0 -0 -0 -1 -1 -1 -1 -1 0 -0 -0 -0 -1 -1 -1 -1 -1 -1 -1 -1 1 -0 -0 -0 2 0 0 2 4 5 4 1 0 -0 -1 -1
3 3 2 2 1 1 0 -0 -0 -0 -0 -1 -1 -0 1 2 0 -0 -0 -1 -1 -1 -1 -1 -1 -1 -1 -1 -0 -0 -0 0 2 1 -0 0 1 3 5 1 1 -0 -0
3 3 3 2 1 1 1 0 -0 -0 -0 -1 -0 0 1 0 0 -0 -0 -1 -1 -1 -1 -1 -1 -1 -1 -1 -1 -1 -1 0 1 1 1 1 1 1 3 4 3 0 -0
4 3 2 2 1 1 1 0 0 0 -0 -0 -0 -0 0 -0 1 1 1 0 -0 -0 -1 -1 -1 -1 -1 -1 -1 -1 -1 -0 -0 0 1 1 3 3 2 3 2 2 1
3 3 3 2 2 2 1 1 1 1 0 -0 0 -0 -0 -0 0 0 1 0 0 0 -0 -1 -1 -1 -1 -1 -1 -1 -1 -1 -0 -0 1 0 1 1 2 2 2 3 1
3 3 2 2 2 2 1 1 1 1 0 0 0 -0 -0 0 0 0 -0 1 1 -0 -1 -1 -1 -1 -1 -1 -1 -0 -0 -0 -0 -0 -0 0 -0 0 1 1 2 4 4
3 3 2 2 2 2 1 1 1 1 1 0 0 0 0 0 0 -1 -0 0 -0 0 -1 -1 -1 -1 -1 -1 -1 -0 -0 -1 -1 -1 -1 0 1 -0 0 -0 1 2 4
4 3 2 2 2 1 1 1 1 1 1 0 0 0 -0 -0 -0 -1 -0 -0 -0 -1 -0 -1 -1 -1 -1 -1 -1 -0 -1 -1 -0 0 -0 -0 -0 -0 -0 0 1 1 2
3 3 3 2 2 1 1 1 1 1 1 0 0 0 0 -0 -0 -0 -0 -1 -1 -1 -1 -1 -1 -1 -1 -1 -1 -0 -0 -0 -0 -1 -0 -0 -1 0 0 -0 -0 1 1
3 3 2 2 2 2 1 1 1 1 1 0 0 0 0 -0 0 0 -0 -1 -0 -1 -1 -1 -1 -1 -1 -1 -0 -0 0 0 0 0 -0 0 0 -0 -0 0 -0 0 0
3 3 3 2 2 2 2 1 1 1 1 0 0 0 0 0 0 0 -0 -1 -0 -1 -1 -1 -0 -0 -1 -0 -1 -1 -0 0 -0 -0 -0 0 -0 0 0 0 0 1 1
3 3 3 3 2 2 2 2 1 1 1 1 1 1 1 0 0 -0 -0 -0 -0 -0 -0 -0 -1 -1 -1 -1 -0 -0 -0 -0 -0 -0 -0 -0 0 0 0 0 -0 -0 1
4 4 3 3 2 2 2 2 1 2 1 1 1 1 1 0 -0 -0 -0 -1 -0 -1 -1 -1 -0 -1 -0 -0 -1 -0 -0 -0 0 -0 -0 -1 1 3 1 0 -0 0 1
4 4 3 3 3 3 2 2 2 1 1 1 2 1 1 0 0 0 0 0 -0 -0 -0 -0 -0 -0 0 3 3 1 0 -0 -0 0 -0 -0 1 2 4 4 4 3 1
4 4 3 3 3 2 2 2 1 1 1 2 2 1 1 1 1 0 0 0 0 0 0 0 -0 0 -0 4 4 3 -0 -0 -0 0 0 0 0 0 -0 3 4 4 4
4 3 3 3 2 2 1 1 1 1 2 1 1 1 1 2 1 1 1 0 0 0 -0 -0 -0 -0 3 6 4 3 -0 -0 0 0 0 0 0 1 0 0 0 0 1
3 3 2 2 1 2 1 2 2 2 2 2 2 1 1 2 2 1 1 1 1 1 1 1 1 1 2 7 6 2 -0 0 0 -0 1 2 0 4 4 0 1 2 4
2 3 2 2 2 2 1 2 2 2 2 2 2 1 1 2 1 1 1 1 1 2 2 3 3 4 2 7 6 3 -0 0 1 0 -0 6 4 5 5 1 1 4 5
2 2 2 2 2 2 2 3 3 3 2 1 1 1 1 1 1 1 1 2 3 3 5 5 5 5 6 5 7 6 0 1 1 1 2 3 8 7 6 5 3 5 5
3 2 2 2 2 1 2 3 3 1 1 3 3 2 1 1 2 2 4 4 5 6 7 7 7 7 7 8 8 8 6 4 4 5 5 7 10 10 9 6 7 6 6
3 2 2 2 2 1 1 3 2 1 2 2 4 3 4 4 4 5 5 5 5 6 6 6 7 7 7 8 9 8 7 7 6 6 8 9 9 9 8 7 7 6 7
3 2 2 3 3 2 1 2 2 2 2 3 3 3 4 5 4 4 5 5 5 5 5 5 6 6 6 6 6 7 7 7 7 7 6 7 7 7 7 6 6 6 6
3 3 3 3 3 2 2 1 1 1 4 3 3 3 5 6 8 10 10 6 8 8 4 3 3 4 6 9 10 8 4 3 6 5 5 6 5 5 5 5 5 5 5
3 3 3 3 2 2 2 1 0 1 1 2 3 3 3 5 5 5 6 11 12 13 13 11 6 7 11 12 12 12 11 10 8 3 3 4 4 4 3 2 2 3 2